Вернуться в каталог

STARLINK-11560

АктивенСвязьVLEO
NORAD 62917·PAYLOAD·🇺🇸 United States

Запущен Feb 8, 2025 с Cape Canaveral Space Force Station

Loading…

Ближайшие Пролёты (ближайшие 24 часа)

TLE

СвежийSource: CelesTrak SupGP

Эпоха: Sep 15, 2026, 03:42 UTC

1 62917C 25027L   26258.15465278  .00039655  00000+0  30782-3 0  2580
2 62917  43.0004 285.5871 0001543 251.5003 356.2494 15.70833098    11

Отслеживайте STARLINK-11560 в реальном времени с AllMySat

Download on the App Store